Cagliari, Italy

8:45 PM CEST on March 29, 2017 (GMT +0200)
Elmas Mil

Weather History for LIEE - October, 2013

Change the Weather History Date:

Thursday, October 24, 2013

  Actual Average Record
Temperature  
Mean Temperature 73 °F -  
Max Temperature 80 °F 67 °F 82 °F (2006)
Min Temperature 66 °F 51 °F 44 °F (2007)
Cooling Degree Days 8    
Growing Degree Days 23 (Base 50)    
Moisture  
Dew Point 66 °F    
Average Humidity 82    
Maximum Humidity 100    
Minimum Humidity 51    
Precipitation  
Precipitation 0.00 in 0.07 in - ()
Sea Level Pressure  
Sea Level Pressure 30.08 in    
Wind  
Wind Speed 5 mph ()    
Max Wind Speed 14 mph    
Max Gust Speed -    
Visibility 5.5 miles    
Events Rain    
Averages and records for this station are not official NWS values.
T = Trace of Precipitation, MM = Missing Value Source: Averaged Metar Reports

Daily Weather History Graph

Daily Weather History Graph

Search for Another Location

Airport or City:

Trip Planner

Search our weather history database for the weather conditions in past years. The results will help you decide how hot, cold, wet, or windy it might be!

Date:

Astronomy

Oct. 24, 2013 Rise Set
Actual Time 7:42 AM CEST 6:32 PM CEST
Civil Twilight 7:15 AM CEST 6:59 PM CEST
Nautical Twilight 6:44 AM CEST 7:31 PM CEST
Astronomical Twilight 6:13 AM CEST 8:02 PM CEST
Moon 10:42 PM CEST (10/24) 12:31 PM CEST (10/24)
Length of Visible Light 11h 44m
Length of Day
10h 49m
Waning Gibbous, 73% of the Moon is Illuminated
Oct 24
Waning Gibbous
Oct 27
Last Quarter
Nov 3
New
Nov 10
First Quarter
Nov 17
Full

Hourly Weather History & Observations

Time (CEST) Temp. Heat Index Dew Point Humidity Pressure Visibility Wind Dir Wind Speed Gust Speed Precip Events Conditions
12:20 AM 69.8 °F - 68.0 °F 94% 30.06 in 5.0 mi NNW 4.6 mph - N/A   Partly Cloudy
12:50 AM 69.8 °F - 68.0 °F 94% 30.09 in 5.0 mi West 6.9 mph - N/A   Partly Cloudy
1:20 AM 69.8 °F - 68.0 °F 94% 30.09 in 5.0 mi North 4.6 mph - N/A   Partly Cloudy
1:50 AM 69.8 °F - 68.0 °F 94% 30.06 in 5.0 mi NNE 6.9 mph - N/A Rain Light Rain
2:20 AM 69.8 °F - 66.2 °F 88% 30.06 in 5.0 mi NNE 3.5 mph - N/A   Scattered Clouds
2:50 AM 69.8 °F - 66.2 °F 88% 30.06 in 5.0 mi NW 4.6 mph - N/A   Scattered Clouds
3:20 AM 68.0 °F - 66.2 °F 94% 30.06 in 5.0 mi NNW 4.6 mph - N/A   Scattered Clouds
3:50 AM 69.8 °F - 66.2 °F 88% 30.06 in 5.0 mi North 5.8 mph - N/A   Scattered Clouds
4:20 AM 69.8 °F - 66.2 °F 88% 30.06 in 5.0 mi NW 4.6 mph - N/A   Scattered Clouds
4:50 AM 68.0 °F - 66.2 °F 94% 30.06 in 5.0 mi NW 3.5 mph - N/A   Scattered Clouds
5:20 AM 68.0 °F - 66.2 °F 94% 30.06 in 5.0 mi WNW 4.6 mph - N/A   Scattered Clouds
5:50 AM 68.0 °F - 66.2 °F 94% 30.06 in 5.0 mi NW 5.8 mph - N/A   Scattered Clouds
6:20 AM 68.0 °F - 66.2 °F 94% 30.06 in 5.0 mi NW 6.9 mph - N/A   Scattered Clouds
6:50 AM 66.2 °F - 64.4 °F 94% 30.06 in 5.0 mi NW 5.8 mph - N/A   Partly Cloudy
7:20 AM 66.2 °F - 64.4 °F 94% 30.06 in 5.6 mi NW 6.9 mph - N/A   Partly Cloudy
7:50 AM 66.2 °F - 64.4 °F 94% 30.06 in 5.6 mi NNW 3.5 mph - N/A   Partly Cloudy
8:20 AM 66.2 °F - 64.4 °F 94% 30.09 in 5.6 mi NW 5.8 mph - N/A   Partly Cloudy
8:50 AM 66.2 °F - 66.2 °F 100% 30.09 in 4.3 mi NW 2.3 mph - N/A   Unknown
9:20 AM 68.0 °F - 66.2 °F 94% 30.09 in 5.6 mi WNW 4.6 mph - N/A   Unknown
9:50 AM 69.8 °F - 66.2 °F 88% 30.12 in 4.3 mi WNW 5.8 mph - N/A   Partly Cloudy
10:20 AM 71.6 °F - 66.2 °F 83% 30.12 in 5.0 mi WNW 5.8 mph - N/A   Partly Cloudy
10:50 AM 71.6 °F - 66.2 °F 83% 30.12 in 6.2 mi NW 5.8 mph - N/A   Partly Cloudy
11:20 AM 75.2 °F - 66.2 °F 73% 30.12 in - WNW 5.8 mph - N/A   Clear
11:50 AM 77.0 °F - 62.6 °F 61% 30.12 in - WNW 4.6 mph - N/A   Clear
12:20 PM 78.8 °F - 60.8 °F 54% 30.12 in - Variable 2.3 mph - N/A   Clear
12:50 PM 80.6 °F 81.5 °F 60.8 °F 51% 30.09 in - West 3.5 mph - N/A   Clear
1:20 PM 80.6 °F 81.5 °F 60.8 °F 51% 30.09 in - South 5.8 mph - N/A   Clear
1:50 PM 80.6 °F 81.8 °F 62.6 °F 54% 30.09 in 6.2 mi South 8.1 mph - N/A   Partly Cloudy
2:20 PM 80.6 °F 81.8 °F 62.6 °F 54% 30.06 in 6.2 mi South 9.2 mph - N/A   Partly Cloudy
2:50 PM 78.8 °F - 62.6 °F 57% 30.06 in 6.2 mi SSE 11.5 mph - N/A   Partly Cloudy
3:20 PM 78.8 °F - 62.6 °F 57% 30.06 in 6.2 mi SSE 12.7 mph - N/A   Partly Cloudy
3:50 PM 78.8 °F - 64.4 °F 61% 30.06 in 6.2 mi SSE 12.7 mph - N/A   Partly Cloudy
4:20 PM 77.0 °F - 66.2 °F 69% 30.06 in 6.2 mi SSE 11.5 mph - N/A   Partly Cloudy
4:50 PM 75.2 °F - 68.0 °F 78% 30.06 in 6.2 mi SSE 13.8 mph - N/A   Partly Cloudy
5:20 PM 75.2 °F - 68.0 °F 78% 30.06 in 6.2 mi SE 10.4 mph - N/A   Partly Cloudy
5:50 PM 73.4 °F - 68.0 °F 83% 30.06 in 6.2 mi SE 10.4 mph - N/A   Partly Cloudy
6:20 PM 75.2 °F - 68.0 °F 78% 30.06 in - SE 8.1 mph - N/A   Clear
6:50 PM 75.2 °F - 68.0 °F 78% 30.06 in - ESE 8.1 mph - N/A   Clear
7:20 PM 73.4 °F - 68.0 °F 83% 30.09 in - ESE 5.8 mph - N/A   Clear
7:50 PM 73.4 °F - 68.0 °F 83% 30.09 in - ESE 5.8 mph - N/A   Clear
8:20 PM 71.6 °F - 68.0 °F 88% 30.09 in - ESE 4.6 mph - N/A   Clear
8:50 PM 71.6 °F - 66.2 °F 83% 30.09 in - ESE 3.5 mph - N/A   Clear
9:20 PM 71.6 °F - 66.2 °F 83% 30.09 in - Variable 5.8 mph - N/A   Clear
9:50 PM 71.6 °F - 66.2 °F 83% 30.09 in - SSW 3.5 mph - N/A   Clear
10:20 PM 71.6 °F - 68.0 °F 88% 30.09 in - South 3.5 mph - N/A   Clear
10:50 PM 71.6 °F - 68.0 °F 88% 30.09 in 6.2 mi SE 3.5 mph - N/A   Partly Cloudy
11:20 PM 71.6 °F - 68.0 °F 88% 30.09 in 6.2 mi SE 5.8 mph - N/A   Partly Cloudy
11:50 PM 66.2 °F - 64.4 °F 94% 30.09 in 5.6 mi ENE 3.5 mph - N/A   Scattered Clouds